Location: Parador Hotel
(28.2240°N, 16.6271°W)
Time: 21:01:03
(UTC+01:00)

Envisat - Pass Details

Date: 25 January 2022
Orbit: 764 x 765 km, 98.2° (Epoch: 20 May)

Event Time Altitude Azimuth Distance (km) Brightness Sun altitude
Rises 06:38:48 0° 357° (N) 3,226 6.1 -17.4°
Reaches altitude 10° 06:41:24 10° 345° (NNW) 2,297 5.2 -16.8°
Maximum altitude 06:45:37 27° 289° (WNW) 1,420 3.8 -15.9°
Drops below altitude 10° 06:49:50 10° 232° (SW) 2,289 5.1 -15.0°
Sets 06:52:25 0° 220° (SW) 3,213 6.0 -14.4°
